This is the latest recevied weather packets stored in our database for station/object WC4PEM-15. If no packets are shown the sender has not sent any weather packets the latest 10 day(s).
| Time | Temp. | Humidity | Pressure | Rain* | Wind** | Luminosity | Snow |
|---|---|---|---|---|---|---|---|
| 1778114995 | 27.78° C | 57% | 1015.1 hPa | 0 mm | - | - | - |
| 1778114794 | 27.78° C | 57% | 1014.8 hPa | 0 mm | - | - | - |
| 1778114755 | 27.78° C | 57% | 1014.8 hPa | 0 mm | - | - | - |
| 1778114695 | 27.78° C | 57% | 1014.8 hPa | 0 mm | - | - | - |
| 1778114609 | 28.33° C | 55% | 1014.8 hPa | 0 mm | - | - | - |
| 1778114395 | 28.33° C | 56% | 1014.9 hPa | 0 mm | - | - | - |
| 1778114095 | 28.33° C | 55% | 1014.8 hPa | 0 mm | - | - | - |
| 1778113795 | 28.33° C | 54% | 1014.8 hPa | 0 mm | - | - | - |
| 1778113637 | 28.89° C | 54% | 1014.7 hPa | 0 mm | - | - | - |
| 1778113495 | 28.89° C | 54% | 1014.7 hPa | 0 mm | - | - | - |
| 1778113256 | 28.89° C | 53% | 1014.5 hPa | 0 mm | - | - | - |
| 1778113195 | 28.89° C | 53% | 1014.7 hPa | 0 mm | - | - | - |
| 1778112896 | 28.89° C | 53% | 1014.5 hPa | 0 mm | - | - | - |
| 1778112773 | 29.44° C | 52% | 1014.7 hPa | 0 mm | - | - | - |
| 1778112595 | 29.44° C | 52% | 1014.7 hPa | 0 mm | - | - | - |
| 1778112295 | 30° C | 51% | 1014.6 hPa | 0 mm | - | - | - |
| 1778112188 | 30.56° C | 49% | 1014.6 hPa | 0 mm | - | - | - |
| 1778111995 | 30.56° C | 49% | 1014.6 hPa | 0 mm | - | - | - |
| 1778111695 | 31.11° C | 46% | 1014.5 hPa | 0 mm | - | - | - |
| 1778111396 | 31.67° C | 44% | 1014.3 hPa | 0 mm | - | - | - |
| 1778111105 | 31.67° C | 43% | 1014.3 hPa | 0 mm | - | - | - |
| 1778111095 | 31.67° C | 44% | 1014.3 hPa | 0 mm | - | - | - |
| 1778110796 | 31.67° C | 43% | 1014.3 hPa | 0 mm | - | - | - |
| 1778110725 | 32.22° C | 42% | 1014.4 hPa | 0 mm | - | - | - |
| 1778110687 | 31.67° C | 42% | 1014.3 hPa | 0 mm | - | - | - |
* Rain latest hour (hover to see other rain measurements)
** Current wind speed in m/s (hover to see current wind gust speed)